User: anonymous   Login
Location: Chandrammap?lem
(16.9200°N, 81.0051°E)
Time: 19:03:06
(UTC+00:00)
Language:

GPS 2-17 Rocket1 - Orbit

View from above orbital plane
View from above orbital plane
View from above satellite
View from above satellite

Ground track
Ground track

The orbit data is extracted from the following two-line orbital elements,

1 22276U 92089B   24197.93978003  .00003986  00000-0  34989-3 0  9991
2 22276  20.2859  96.6506 0056465 231.8141 127.7188 14.89907762686710
Epoch (UTC): 15 July 2024 22:33:16
Eccentricity: 0.0056465
inclination: 20.2859°
perigee height: 559 km
apogee height: 637 km
right ascension of ascending node: 96.6506°
argument of perigee: 231.8141°
revolutions per day: 14.89907762
mean anomaly at epoch: 127.7188°
orbit number at epoch: 68671

The dashed part of the orbit path shows where the satellite is in the earth's shadow,  

DLR